Content
SEND FEEDBACK

Daily
Averages
Monthly
Summary
United States of America

ALPINE MEADOWS, CALIFORNIA


Home > North America > United States > California
Elevation: 6230 feet     Latitude: 39 12N     Longitude: 120 14W

WEATHER
 
SELECT A DAY
Number of Records: 282,595;   Date Range: 1/1/95 - 9/3/14
 
SHARE

PRINT THIS DATA

[ ← Previous Day ]
WEATHER ALMANAC - FEBRUARY 16, 2014
[ Next Day → ]
[ °C ]   °F
Weather ElementAverageHighLow
Temperature33.9 °F48.2 °F (1:50 pm)21.2 °F (11:55 pm)
Dewpoint26.8 °F32 °F (12:35 am)19.4 °F (11:50 am)
Humidity77.7 %100 % (10:35 pm)34 % (11:50 am)
Barometer30.11 in30.22 in (10:35 pm)29.94 in (1:15 am)
Wind Speed6.3 mph21.9 mph (2:15 am)
Wind Gust29.9 mph (1:55 am)
Weather ElementAverage
Visibility9.6 mi
Wind DirectionSE (131.9 °)

Weather ElementTotal
Precipitation0.15 in
Heating Degree Days30.3 (Base 65)
Averaged from 47 records on February 16, 2014
WEATHER CONDITIONS BREAKOUT
WIND DIRECTION BREAKOUT
WEATHER BY HOUR - FEBRUARY 16, 2014
[ °C ]   °F
Local TimeTemperatureDewpointHumidityBarometerVisibilityWind DirectionWind SpeedGust SpeedPrecipitationEventsConditions
12:35 AM33.8 °F32.0 °F93 %29.97 in10.0 miSSW (200°)8.1 mphRainRain
12:55 AM35.6 °F32.0 °F87 %29.95 in10.0 miSouth (190°)17.3 mph23.0 mph0.01 inRainLight Rain
1:15 AM37.4 °F32.0 °F81 %29.94 in10.0 miSSW (210°)13.8 mph25.3 mphRainLight Rain
1:35 AM35.6 °F32.0 °F87 %29.96 in7.0 miSouth (190°)18.4 mph25.3 mph0.01 inRainLight Rain
1:55 AM35.6 °F32.0 °F87 %29.96 in5.0 miSSW (210°)12.7 mph29.9 mph0.02 inRainLight Rain
2:15 AM35.6 °F32.0 °F87 %29.96 in10.0 miSW (220°)21.9 mph28.8 mphRainRain
2:35 AM35.6 °F32.0 °F87 %29.96 in7.0 miSW (220°)8.1 mph0.02 inRainLight Rain
2:55 AM35.6 °F32.0 °F87 %29.95 in10.0 miSW (230°)11.5 mph17.3 mph0.03 inRainRain
3:15 AM35.6 °F32.0 °F87 %29.96 in7.0 miSW (230°)9.2 mph0.01 inRainLight Rain
3:35 AM35.6 °F32.0 °F87 %29.96 in10.0 miWSW (250°)12.7 mph20.7 mph0.02 inRainLight Rain
3:55 AM35.6 °F32.0 °F87 %29.97 in7.0 miSW (220°)15.0 mph23.0 mph0.03 inRainLight Rain
4:15 AM33.8 °F32.0 °F93 %29.98 in7.0 miSW (230°)16.1 mph23.0 mphRainLight Rain
4:35 AM33.8 °F32.0 °F93 %29.98 in10.0 miWSW (240°)6.9 mphLight Drizzle
4:55 AM33.8 °F30.2 °F87 %30.00 in10.0 miWSW (240°)18.4 mph25.3 mphMostly Cloudy
5:15 AM33.8 °F30.2 °F87 %30.00 in10.0 miSW (230°)13.8 mph20.7 mphMostly Cloudy
5:35 AM33.8 °F28.4 °F81 %30.01 in10.0 miWSW (250°)11.5 mph20.7 mphClear
6:55 AM32.0 °F26.6 °F80 %30.05 in10.0 miSSW (200°)4.6 mphScattered Clouds
7:55 AM32.0 °F28.4 °F87 %30.09 in10.0 miCalmPartly Cloudy
8:55 AM37.4 °F26.6 °F65 %30.13 in10.0 miCalmPartly Cloudy
9:45 AM39.2 °F21.2 °F49 %30.14 in10.0 miSSW (210°)8.1 mphPartly Cloudy
10:45 AM41.0 °F26.6 °F57 %30.17 in10.0 miNNW (340°)3.5 mphPartly Cloudy
11:50 AM46.4 °F19.4 °F34 %30.17 in10.0 miWSW (240°)9.2 mphPartly Cloudy
1:50 PM48.2 °F26.6 °F43 %30.16 in10.0 miSSW (210°)10.4 mphPartly Cloudy
2:45 PM48.2 °F26.6 °F43 %30.16 in10.0 miSSW (210°)5.8 mphPartly Cloudy
3:45 PM48.2 °F26.6 °F43 %30.17 in10.0 miSW (220°)11.5 mphPartly Cloudy
4:55 PM44.6 °F26.6 °F49 %30.17 in10.0 miWSW (240°)5.8 mphClear
5:15 PM42.8 °F26.6 °F53 %30.17 in10.0 miWSW (250°)4.6 mphClear
5:35 PM41.0 °F26.6 °F57 %30.18 in10.0 miCalmClear
5:55 PM37.4 °F26.6 °F65 %30.19 in10.0 miENE (70°)5.8 mphClear
6:15 PM37.4 °F24.8 °F60 %30.19 in10.0 miCalmClear
6:35 PM37.4 °F26.6 °F65 %30.20 in10.0 miCalmClear
6:55 PM30.2 °F24.8 °F80 %30.20 in10.0 miSE (130°)4.6 mphClear
7:15 PM30.2 °F23.0 °F75 %30.20 in10.0 miSouth (170°)3.5 mphClear
7:35 PM32.0 °F23.0 °F69 %30.21 in10.0 miSSE (150°)3.5 mphClear
7:55 PM30.2 °F24.8 °F80 %30.20 in10.0 miCalmClear
8:15 PM26.6 °F23.0 °F86 %30.20 in10.0 miCalmClear
8:35 PM26.6 °F23.0 °F86 %30.20 in10.0 miCalmClear
8:55 PM26.6 °F23.0 °F86 %30.20 in10.0 miCalmClear
9:15 PM26.6 °F23.0 °F86 %30.20 in10.0 miCalmClear
9:35 PM24.8 °F23.0 °F93 %30.21 in10.0 miCalmClear
9:55 PM26.6 °F23.0 °F86 %30.21 in10.0 miCalmClear
10:15 PM23.0 °F21.2 °F93 %30.21 in10.0 miCalmClear
10:35 PM23.0 °F23.0 °F100 %30.22 in10.0 miCalmClear
10:55 PM23.0 °F23.0 °F100 %30.22 in10.0 miCalmClear
11:15 PM23.0 °F23.0 °F100 %30.21 in10.0 miCalmClear
11:35 PM24.8 °F23.0 °F93 %30.21 in10.0 miCalmClear
11:55 PM21.2 °F19.4 °F93 %30.19 in10.0 miCalmClear
Hourly data recorded from KTRK, located miles away from Alpine Meadows, California







STORIES FROM OUR PARTNERS